Flag Weather past 2 weeks in Weißenfels, Saxony-Anhalt, Germany

Now
51 °F

Low clouds.


Feels Like: 51 °F
Forecast: 45 / 59 °F
Wind: 1 mph from Southeast

Location: Leipzig-Schkeuditz

Current Time: Oct 30, 2014 at 3:44:16 PM

Latest Report: Oct 30, 2014 at 3:00 PM


Visibility: 3 mi

Pressure: 30.28 "Hg

Humidity: 91%

Dew point: 48 °F

Location of WeißenfelsLocation

Historic Weather in Weißenfels — Graph

°F

Weißenfels temperature yesterday

Maximum temperature yesterday: 50 °F (at 2:00 PM)
Minimum temperature yesterday: 37 °F (at 7:00 AM)
Average temperature yesterday: 43 °F

Past Weeks' High & Low Weather Summary

 TemperatureHumidityPressure
High72 °F (Oct 19, 3:00 PM)98% (Oct 30, 7:00 AM)30.36 "Hg (Oct 30, 7:00 AM)
Low37 °F (Oct 28, 7:00 AM)49% (Oct 15, 4:00 PM)29.47 "Hg (Oct 21, 9:00 PM)
Average51 °F86%30.05 "Hg
* Reported Oct 15 4:00 PM — Oct 30 3:00 PM, Weißenfels, Weather by CustomWeather, © 2014

Note: Actual official high and low records may vary slightly from our data, if they occured in-between our weather recording intervals... More about our weather records

Advertising

Weißenfels weather history for previous 24 hours

 ConditionsComfort  
Time TempWeatherWind HumidityBarometerVisibility
3:00 PM
Oct 30
51 °FLow clouds.1 mph91%30.28 "Hg3 mi
2:00 PM51 °FFog.1 mph91%30.28 "Hg3 mi
1:00 PM50 °FFog.2 mph92%30.28 "Hg3 mi
12:00 PM49 °FFog.2 mph95%30.26 "Hg2 mi
11:00 AM48 °FLow clouds.2 mph97%30.27 "Hg2 mi
9:00 AM46 °FDrizzle. Low clouds.2 mph97%30.26 "Hg1 mi
8:00 AM45 °FLow clouds.2 mph98%30.24 "Hg1 mi
7:00 AM45 °FDrizzle. Low clouds.2 mph98%30.22 "Hg1 mi
6:00 AM45 °FDrizzle. Low clouds.2 mph96%30.21 "Hg2 mi
5:00 AM45 °FOvercast.2 mph93%30.20 "Hg5 mi
3:00 AM45 °FLight rain. Overcast.1 mph94%30.17 "Hg5 mi
2:00 AM44 °FOvercast.2 mph96%30.17 "Hg6 mi
1:00 AM43 °FOvercast.2 mph97%30.16 "Hg6 mi
12:00 AM41 °FPassing clouds.2 mph96%30.16 "Hg7 mi
11:00 PM
Oct 29
40 °FPassing clouds.2 mph95%30.16 "Hg6 mi
9:00 PM39 °FPassing clouds.3 mph93%30.13 "Hg7 mi
8:00 PM41 °FPassing clouds.2 mph90%30.12 "Hg9 mi
7:00 PM42 °FPassing clouds.1 mph88%30.11 "Hg9 mi
6:00 PM44 °FPassing clouds.1 mph83%30.09 "Hg9 mi
5:00 PM46 °FPassing clouds.2 mph79%30.08 "Hg12 mi
4:00 PM49 °FPassing clouds.2 mph73%30.07 "Hg12 mi
3:00 PM50 °FScattered clouds.3 mph70%30.07 "Hg12 mi
Weather by CustomWeather, © 2014

See weather overviewHow to use our weather pages